Weather History for Lone Rock, WI

Change the Weather History Date:

Wednesday, September 19, 2012

  Actual Average Record
Temperature  
Mean Temperature 54 °F -  
Max Temperature 77 °F 69 °F 88 °F (2013)
Min Temperature 30 °F 47 °F 30 °F (2012)
Degree Days  
Heating Degree Days 12    
Growing Degree Days 4 (Base 50)    
Moisture  
Dew Point 40 °F    
Average Humidity 57    
Maximum Humidity 93    
Minimum Humidity 31    
Precipitation  
Precipitation 0.00 in - - ()
Sea Level Pressure  
Sea Level Pressure 29.83 in    
Wind  
Wind Speed 6 mph (SW)    
Max Wind Speed 24 mph    
Max Gust Speed 36 mph    
Visibility 10 miles    
Events Rain    
Averages and records for this station are not official NWS values.
T = Trace of Precipitation, MM = Missing Value Source: NWS Daily Summary

Daily Weather History Graph

Daily Weather History Graph

Search for Another Location

Airport:

Trip Planner

Search our weather history database for the weather conditions in past years. The results will help you decide how hot, cold, wet, or windy it might be!

Date:

Astronomy

Sep. 19, 2012 Rise Set
Actual Time 6:45 AM CDT 7:02 PM CDT
Civil Twilight 6:16 AM CDT 7:31 PM CDT
Nautical Twilight 5:43 AM CDT 8:04 PM CDT
Astronomical Twilight 5:08 AM CDT 8:38 PM CDT
Moon 11:04 AM CDT (9/19) 9:03 PM CDT (9/19)
Length of Visible Light 13h 14m
Length of Day
12h 17m
Waxing Crescent, 17% of the Moon is Illuminated
Sep 19
Waxing Crescent
Sep 22
First Quarter
Sep 29
Full
Oct 8
Last Quarter
Oct 15
New

Hourly Weather History & Observations

Time (CDT) Temp. Windchill Dew Point Humidity Pressure Visibility Wind Dir Wind Speed Gust Speed Precip Events Conditions
12:56 AM 30.9 °F - 28.9 °F 92% 30.01 in 10.0 mi Calm Calm - N/A   Clear
1:56 AM 33.1 °F - 30.9 °F 92% 30.01 in 10.0 mi Calm Calm - N/A   Clear
2:56 AM 33.1 °F - 30.9 °F 92% 30.00 in 10.0 mi Calm Calm - N/A   Overcast
3:56 AM 35.1 °F 32.2 °F 33.1 °F 92% 29.99 in 10.0 mi East 3.5 mph - N/A   Overcast
4:56 AM 37.0 °F - 34.0 °F 89% 29.99 in 10.0 mi Calm Calm - N/A   Overcast
5:56 AM 39.0 °F - 37.0 °F 93% 29.97 in 10.0 mi Calm Calm - N/A   Overcast
8:56 AM 55.0 °F - 36.0 °F 49% 29.91 in 10.0 mi South 5.8 mph - N/A   Overcast
9:56 AM 55.9 °F - 37.0 °F 49% 29.89 in 10.0 mi Variable 3.5 mph - 0.00 in   Overcast
10:56 AM 61.0 °F - 37.9 °F 42% 29.86 in 10.0 mi South 8.1 mph 17.3 mph N/A   Mostly Cloudy
11:56 AM 69.1 °F - 41.0 °F 36% 29.81 in 10.0 mi SW 18.4 mph 28.8 mph N/A   Clear
12:56 PM 72.0 °F - 42.1 °F 34% 29.78 in 10.0 mi SSW 20.7 mph 31.1 mph N/A   Clear
1:56 PM 75.0 °F - 42.1 °F 31% 29.74 in 10.0 mi SW 20.7 mph 35.7 mph N/A   Clear
3:56 PM 77.0 °F - 44.1 °F 31% 29.67 in 10.0 mi SSW 24.2 mph 34.5 mph N/A   Clear
4:56 PM 75.0 °F - 45.0 °F 34% 29.68 in 10.0 mi SSW 11.5 mph 19.6 mph N/A   Partly Cloudy
5:56 PM 73.9 °F - 46.0 °F 37% 29.65 in 10.0 mi SSW 15.0 mph 20.7 mph N/A   Mostly Cloudy
6:56 PM 66.9 °F - 52.0 °F 59% 29.65 in 10.0 mi WSW 5.8 mph - 0.00 in Rain Light Rain
7:56 PM 66.0 °F - 53.1 °F 63% 29.71 in 10.0 mi West 8.1 mph - 0.00 in   Mostly Cloudy
8:56 PM 64.9 °F - 44.1 °F 47% 29.74 in 10.0 mi WNW 10.4 mph - N/A   Clear
9:56 PM 64.9 °F - 39.0 °F 39% 29.78 in 10.0 mi WNW 15.0 mph 24.2 mph N/A   Clear
10:56 PM 60.1 °F - 41.0 °F 49% 29.82 in 10.0 mi North 9.2 mph - N/A   Clear
11:56 PM 57.0 °F - 41.0 °F 55% 29.83 in 10.0 mi NW 5.8 mph - N/A   Clear